Regional Weather Roundup
Issued by NWS

Home | Current Version | Previous Version | Graphics & Text | Print | Product List | Glossary On
Versions: 1 2 3 4 5 6 7 8 9 10 11 12 13 14 15 16 17 18 19 20 21 22 23 24 25 26 27 28 29 30 31 32 33 34 35 36 37 38 39 40 41 42 43 44 45 46 47 48 49 50
000
ASUS43 KIND 300609
RWRIN

WEATHER ROUNDUP FOR INDIANA
NATIONAL WEATHER SERVICE INDIANAPOLIS IN
200 AM EDT TUE SEP 30 2014

NOTE: "FAIR" INDICATES FEW OR NO CLOUDS BELOW 12,000 FEET WITH NO
SIGNIFICANT WEATHER AND/OR OBSTRUCTIONS TO VISIBILITY.

* - STATION DOES NOT REPORT WEATHER SUCH AS PRECIPITATION OR FOG.

+ - STATION NOT QUALITY CONTROLLED BY THE NATIONAL WEATHER SERVICE.
    USE DATA WITH CAUTION...ESPECIALLY DEWPOINT AND RELATIVE
    HUMIDITY OBSERVATIONS.

INZ001>003-010>013-019-020-300700-
NORTHWEST INDIANA

CITY           SKY/WX    TMP DP  RH WIND       PRES   REMARKS
GARY /AIRPORT/ CLOUDY    57  53  84 N14G24    30.02R
KNOX *+        CLOUDY    57  53  85 N10       29.96F
LA PORTE +     CLOUDY    56  55  96 N13       29.99S
6HR MIN TEMP:  56; 6HR MAX TEMP:  69;

MICHIGAN CITY+ CLOUDY    54  50  87 N9G20     30.00S
MONTICELLO +   CLOUDY    59  57  96 N10       29.95S
RENSSELAER +   CLOUDY    59  57  94 N10G16    29.97F
VALPARAISO     LGT RAIN  56  52  86 N10G20    29.99S
6HR MIN TEMP:  56; 6HR MAX TEMP:  71; 6HR PCP: TRACE;


$$

LMZ046-743>745-300700-
SOUTHERN LAKE MICHIGAN

STATION/POSITION TIME  TEMP WIND        PRES
                       AIR  DIR/SP/G
                 (UTC) (F)  (DEG/KT/KT) (MB)
MICHIGAN CITY    0600   55  350/ 24/ 28   N/A

$$

INZ004-005-014>016-021>024-300700-
NORTH CENTRAL INDIANA

CITY           SKY/WX    TMP DP  RH WIND       PRES   REMARKS
LOGANSPORT +   CLOUDY    59  55  88 N8        29.95S FOG
PERU/GRISSOM   MOCLDY    61  61 100 N8        29.94R FOG
6HR MIN TEMP:  58; 6HR MAX TEMP:  69;

ROCHESTER +    MOCLDY    59  57  94 NW6       29.95S FOG
SOUTH BEND     CLOUDY    57  52  83 N15       29.98R
6HR MIN TEMP:  57; 6HR MAX TEMP:  72;

WARSAW +       CLOUDY    57  55  94 NW3       29.94S FOG

$$

INZ006>009-017-018-025>027-300700-
NORTHEAST INDIANA

CITY           SKY/WX    TMP DP  RH WIND       PRES   REMARKS
ANGOLA *+      CLOUDY    61  57  88 NW6       29.92F
AUBURN +       PTCLDY    61  55  82 W5        29.93S
FORT WAYNE     PTCLDY    61  56  83 NW5       29.93R
6HR MIN TEMP:  57; 6HR MAX TEMP:  65;

HUNTINGTON +   CLEAR     60  57  89 NW3       29.93S
6HR MIN TEMP:  57; 6HR MAX TEMP:  64;


$$

INZ028-029-035-036-043>045-051>053-300700-
WEST CENTRAL INDIANA

CITY           SKY/WX    TMP DP  RH WIND       PRES   REMARKS
GREENCASTLE +  CLEAR     57  55  94 CALM      29.95S
LAFAYETTE      CLOUDY    60  59  96 N9        29.95R FOG
6HR MIN TEMP:  58; 6HR MAX TEMP:  69;

TERRE HAUTE    PTCLDY    56  53  90 CALM      29.94F
6HR MIN TEMP:  55; 6HR MAX TEMP:  67;


$$

INZ030>032-037>040-046>048-054>057-064-065-300700-
CENTRAL INDIANA

CITY           SKY/WX    TMP DP  RH WIND       PRES   REMARKS
CP ATTERBURY + CLEAR     52  50  93 CALM      29.94F
FRANKFORT +    CLEAR     60  56  87 N5        29.95R
INDIANAPOLIS   CLEAR     60  54  80 W6        29.93S
6HR MIN TEMP:  59; 6HR MAX TEMP:  74;

-EAGLE CREEK   CLEAR     61  55  81 CALM      29.93S
6HR MIN TEMP:  61; 6HR MAX TEMP:  71;

KOKOMO *+      CLEAR     61  54  77 NW7       29.94S
MARION +       CLEAR     56  51  84 NW6       29.94R
MT COMFORT *+  CLEAR     55  52  88 CALM      29.94S
SHELBYVILLE    CLEAR     57  51  80 S3        29.93F
6HR MIN TEMP:  56; 6HR MAX TEMP:  66;

ZIONSVILLE +   CLEAR     55  53  90 CALM      29.94S
6HR MIN TEMP:  54; 6HR MAX TEMP:  68;


$$

INZ033-034-041-042-049-050-058-059-300700-
EAST CENTRAL INDIANA

CITY           SKY/WX    TMP DP  RH WIND       PRES   REMARKS
MUNCIE         CLEAR     61  52  72 SW5       29.92F
6HR MIN TEMP:  58; 6HR MAX TEMP:  67;


$$

INZ060-061-067>069-081>083-085>088-300700-
SOUTHWEST INDIANA

CITY           SKY/WX    TMP DP  RH WIND       PRES   REMARKS
EVANSVILLE     CLEAR     61  57  87 CALM      29.95F
6HR MIN TEMP:  61; 6HR MAX TEMP:  76;

WASHINGTON +   CLEAR     55  55  98 CALM      29.94S FOG
6HR MIN TEMP:  55; 6HR MAX TEMP:  66;


$$

INZ062-063-066-070>080-084-089>092-300700-
SOUTH CENTRAL AND SOUTHEAST INDIANA

CITY           SKY/WX    TMP DP  RH WIND       PRES   REMARKS
BLOOMINGTON    CLEAR     55  52  89 CALM      29.95S
6HR MIN TEMP:  54; 6HR MAX TEMP:  65;


$$




USA.gov is the U.S. government's official web portal to all federal, state and local government web resources and services.